Flag for Canada Weather past 2 weeks in Pond Inlet, Nunavut, Canada

Now
27 °F

Clear.


Feels Like: 21 °F
Forecast: 30 / 37 °F
Wind: 5 mph from South

Location: Pond Inlet

Current Time: Sep 1, 2015 at 2:52:58 AM

Latest Report: Sep 1, 2015 at 2:00 AM


Visibility: 9 mi

Pressure: 30.03 "Hg

Humidity: 86%

Dew point: 23 °F

Location of Pond InletLocation

Historic Weather in Pond Inlet — Graph

°F

Pond Inlet temperature yesterday

Maximum temperature yesterday: 43 °F (at 12:00 PM)
Minimum temperature yesterday: 28 °F (at 5:00 AM)
Average temperature yesterday: 36 °F

Past Weeks' High & Low Weather Summary

 TemperatureHumidityPressure
High50 °F (Aug 17, 5:00 PM)100% (Aug 25, 7:00 AM)30.35 "Hg (Aug 25, 7:00 AM)
Low28 °F (Aug 31, 5:00 AM)42% (Aug 31, 4:00 PM)29.52 "Hg (Aug 17, 3:00 PM)
Average40 °F78%30.00 "Hg
* Reported Aug 17 1:00 AM — Sep 1 1:00 AM, Pond Inlet, Weather by CustomWeather, © 2015

Note: Actual official high and low records may vary slightly from our data, if they occured in-between our weather recording intervals... More about our weather records

Advertising

Pond Inlet weather history for previous 24 hours

 ConditionsComfort  
Time TempWeatherWind HumidityBarometerVisibility
1:00 AM
Tue, Sep 1
30 °FClear.2 mph80%30.03 "Hg9 mi
12:00 AM30 °FClear.5 mph69%30.03 "Hg9 mi
11:00 PM
Mon, Aug 31
30 °FClear.2 mph69%30.04 "Hg9 mi
10:00 PM32 °FClear.5 mph60%30.05 "Hg9 mi
9:00 PM37 °FClear.6 mph65%30.05 "Hg9 mi
8:00 PM39 °FSunny.9 mph61%30.05 "Hg9 mi
7:00 PM41 °FSunny.8 mph61%30.04 "Hg9 mi
6:00 PM41 °FPassing clouds.10 mph57%30.03 "Hg30 mi
5:00 PM43 °FPassing clouds.10 mph53%30.03 "Hg30 mi
4:00 PM43 °FPassing clouds.9 mph42%30.04 "Hg30 mi
3:00 PM43 °FPassing clouds.10 mph49%30.04 "Hg30 mi
2:00 PM43 °FPassing clouds.8 mph49%30.04 "Hg30 mi
1:00 PM43 °FPassing clouds.13 mph49%30.03 "Hg30 mi
12:00 PM43 °FScattered clouds.14 mph49%30.03 "Hg30 mi
11:00 AM39 °FScattered clouds.6 mph61%30.03 "Hg40 mi
10:00 AM37 °FOvercast.2 mph75%30.03 "Hg9 mi
9:00 AM36 °FPassing clouds.No wind81%30.02 "Hg9 mi
8:00 AM37 °FPassing clouds.2 mph65%30.02 "Hg9 mi
7:00 AM32 °FSunny.3 mph80%30.01 "Hg9 mi
6:00 AM28 °FSunny.6 mph80%30.01 "Hg9 mi
5:00 AM28 °FSunny.5 mph80%30.00 "Hg9 mi
4:00 AM30 °FClear.No wind86%29.99 "Hg9 mi
3:00 AM30 °FClear.3 mph80%29.98 "Hg9 mi
2:00 AM30 °FClear.3 mph75%29.98 "Hg9 mi
Weather by CustomWeather, © 2015

See weather overviewHow to use our weather pages